When you browse on this site, cookies collect data to enhance your experience and personalize the content and advertising you see.
Visit our Privacy Policy to learn more. By continuing to use the site, you agree to this use of cookies and data.
  • In United Kingdom
  • List of Countries
  • For 7 days
  • Water Temperature
  • Weather Map
  • Weather Widgets
  • user-avatar
    Login

    Hourly Weather Bedford

    Today, 31 May, Sunday

    Time Temperature Precipitation Wind Pressure Humidity
    00:00 +9°C° 0 mm 3 mps 764 mmHg 92%
    01:00 +8°C° 0 mm 3 mps 764 mmHg 91%
    02:00 +8°C° 0 mm 3 mps 764 mmHg 90%
    03:00 +7°C° 0 mm 3 mps 764 mmHg 90%
    04:00 +9°C° 0 mm 3 mps 764 mmHg 89%
    05:00 +10°C° 0 mm 4 mps 764 mmHg 88%
    06:00 +11°C° 0 mm 4 mps 764 mmHg 87%
    07:00 +13°C° 0 mm 4 mps 764 mmHg 81%
    08:00 +17°C° 0 mm 4 mps 764 mmHg 74%
    09:00 +19°C° 0 mm 4 mps 764 mmHg 67%
    10:00 +20°C° 0 mm 5 mps 764 mmHg 64%
    11:00 +20°C° 0 mm 5 mps 765 mmHg 61%
    12:00 +21°C° 0 mm 6 mps 765 mmHg 57%
    13:00 +21°C° 0 mm 6 mps 765 mmHg 58%
    14:00 +21°C° 0 mm 6 mps 765 mmHg 58%
    15:00 +21°C° 0 mm 6 mps 765 mmHg 58%
    16:00 +20°C° 0 mm 5 mps 765 mmHg 62%
    17:00 +19°C° 0 mm 5 mps 765 mmHg 66%
    18:00 +18°C° 0 mm 4 mps 765 mmHg 71%
    19:00 +15°C° 0 mm 4 mps 765 mmHg 76%
    20:00 +13°C° 0 mm 4 mps 765 mmHg 81%
    21:00 +11°C° 0 mm 4 mps 765 mmHg 85%
    22:00 +10°C° 0 mm 3 mps 765 mmHg 88%
    23:00 +9°C° 0 mm 3 mps 766 mmHg 91%

    Tomorrow, 1 June, Monday

    Time Temperature Precipitation Wind Pressure Humidity
    00:00 +8°C° 0 mm 3 mps 766 mmHg 94%
    01:00 +8°C° 0 mm 3 mps 765 mmHg 95%
    02:00 +8°C° 0 mm 3 mps 765 mmHg 96%
    03:00 +8°C° 0 mm 3 mps 765 mmHg 97%
    04:00 +9°C° 0 mm 3 mps 765 mmHg 95%
    05:00 +10°C° 0 mm 3 mps 765 mmHg 94%
    06:00 +11°C° 0 mm 3 mps 765 mmHg 93%
    07:00 +13°C° 0 mm 4 mps 765 mmHg 86%
    08:00 +15°C° 0 mm 4 mps 765 mmHg 80%
    09:00 +17°C° 0 mm 5 mps 765 mmHg 73%
    10:00 +19°C° 0 mm 5 mps 765 mmHg 71%
    11:00 +20°C° 0 mm 5 mps 765 mmHg 68%
    12:00 +21°C° 0 mm 5 mps 765 mmHg 66%
    13:00 +21°C° 0 mm 5 mps 765 mmHg 67%
    14:00 +21°C° 0 mm 4 mps 764 mmHg 69%
    15:00 +21°C° 0 mm 4 mps 764 mmHg 71%
    16:00 +20°C° 0 mm 4 mps 764 mmHg 73%
    17:00 +20°C° 0 mm 4 mps 764 mmHg 75%
    18:00 +19°C° 0 mm 4 mps 764 mmHg 77%
    19:00 +17°C° 0 mm 4 mps 764 mmHg 82%
    20:00 +14°C° 0 mm 4 mps 764 mmHg 87%
    21:00 +11°C° 0 mm 3 mps 765 mmHg 92%
    22:00 +10°C° 0 mm 3 mps 765 mmHg 94%
    23:00 +9°C° 0 mm 3 mps 764 mmHg 95%

    Day after tomorrow, 2 June, Tuesday

    Time Temperature Precipitation Wind Pressure Humidity
    00:00 +8°C° 0 mm 3 mps 764 mmHg 96%
    01:00 +8°C° 0 mm 3 mps 764 mmHg 97%
    02:00 +8°C° 0 mm 3 mps 764 mmHg 97%
    03:00 +8°C° 0 mm 3 mps 764 mmHg 97%
    04:00 +9°C° 0 mm 3 mps 764 mmHg 96%
    05:00 +10°C° 0 mm 3 mps 763 mmHg 95%
    06:00 +11°C° 0 mm 3 mps 763 mmHg 94%
    07:00 +13°C° 0 mm 3 mps 763 mmHg 89%
    08:00 +16°C° 0 mm 3 mps 763 mmHg 83%
    09:00 +18°C° 0 mm 3 mps 763 mmHg 77%
    10:00 +19°C° 0 mm 3 mps 762 mmHg 73%
    11:00 +20°C° 0 mm 3 mps 762 mmHg 69%
    12:00 +21°C° 0 mm 3 mps 762 mmHg 65%
    13:00 +21°C° 0 mm 3 mps 761 mmHg 65%
    14:00 +21°C° 0 mm 3 mps 761 mmHg 65%
    15:00 +21°C° 0 mm 3 mps 760 mmHg 65%
    16:00 +20°C° 0 mm 3 mps 760 mmHg 69%
    17:00 +20°C° 0 mm 3 mps 759 mmHg 73%
    18:00 +19°C° 0 mm 3 mps 759 mmHg 77%
    19:00 +17°C° 0 mm 3 mps 759 mmHg 83%
    20:00 +14°C° 0 mm 3 mps 759 mmHg 88%
    21:00 +13°C° 0 mm 2 mps 759 mmHg 94%
    22:00 +12°C° 0 mm 2 mps 758 mmHg 94%
    23:00 +12°C° 0 mm 2 mps 758 mmHg 95%

    3 June, Wednesday

    Time Temperature Precipitation Wind Pressure Humidity
    00:00 +10°C° 0 mm 2 mps 758 mmHg 95%
    01:00 +9°C° 0 mm 2 mps 757 mmHg 96%
    02:00 +9°C° 0 mm 2 mps 757 mmHg 97%
    03:00 +9°C° 0 mm 2 mps 757 mmHg 97%
    04:00 +9°C° 0 mm 3 mps 756 mmHg 96%
    05:00 +10°C° 0 mm 3 mps 756 mmHg 96%
    06:00 +11°C° 0 mm 4 mps 756 mmHg 95%
    07:00 +12°C° 0 mm 4 mps 756 mmHg 90%
    08:00 +14°C° 0 mm 4 mps 756 mmHg 86%
    09:00 +15°C° 0 mm 5 mps 756 mmHg 82%
    10:00 +16°C° 0.1 mm 5 mps 756 mmHg 79%
    11:00 +17°C° 0.1 mm 5 mps 756 mmHg 75%
    12:00 +19°C° 0.1 mm 5 mps 755 mmHg 72%
    13:00 +19°C° 0.1 mm 6 mps 755 mmHg 71%
    14:00 +19°C° 0.1 mm 6 mps 755 mmHg 71%
    15:00 +17°C° 0.1 mm 6 mps 755 mmHg 70%
    16:00 +17°C° 0 mm 6 mps 755 mmHg 71%
    17:00 +16°C° 0 mm 6 mps 755 mmHg 72%
    18:00 +15°C° 0 mm 6 mps 755 mmHg 73%
    19:00 +13°C° 0 mm 5 mps 755 mmHg 80%
    20:00 +11°C° 0 mm 4 mps 755 mmHg 87%
    21:00 +10°C° 0 mm 3 mps 756 mmHg 93%
    22:00 +9°C° 0 mm 3 mps 756 mmHg 95%
    23:00 +9°C° 0 mm 3 mps 755 mmHg 96%

    4 June, Thursday

    Time Temperature Precipitation Wind Pressure Humidity
    00:00 +9°C° 0 mm 3 mps 755 mmHg 98%
    01:00 +8°C° 0 mm 3 mps 755 mmHg 98%
    02:00 +8°C° 0 mm 3 mps 755 mmHg 98%
    03:00 +8°C° 0 mm 3 mps 755 mmHg 97%
    04:00 +9°C° 0 mm 3 mps 755 mmHg 96%
    05:00 +9°C° 0 mm 3 mps 755 mmHg 94%
    06:00 +10°C° 0 mm 3 mps 755 mmHg 92%
    07:00 +11°C° 0 mm 3 mps 755 mmHg 86%
    08:00 +14°C° 0 mm 2 mps 755 mmHg 80%
    09:00 +15°C° 0 mm 2 mps 755 mmHg 73%
    10:00 +16°C° 0 mm 2 mps 755 mmHg 71%
    11:00 +16°C° 0 mm 2 mps 755 mmHg 69%
    12:00 +17°C° 0 mm 2 mps 755 mmHg 67%
    13:00 +17°C° 0.1 mm 2 mps 755 mmHg 68%
    14:00 +18°C° 0.1 mm 2 mps 755 mmHg 68%
    15:00 +18°C° 0.1 mm 2 mps 754 mmHg 69%
    16:00 +18°C° 0.1 mm 2 mps 754 mmHg 72%
    17:00 +18°C° 0.1 mm 2 mps 754 mmHg 74%
    18:00 +18°C° 0.1 mm 2 mps 754 mmHg 76%
    19:00 +16°C° 0 mm 2 mps 754 mmHg 79%
    20:00 +14°C° 0 mm 2 mps 754 mmHg 81%
    21:00 +12°C° 0 mm 2 mps 754 mmHg 83%
    22:00 +10°C° 0 mm 2 mps 754 mmHg 85%
    23:00 +9°C° 0 mm 2 mps 754 mmHg 86%

    5 June, Friday

    Time Temperature Precipitation Wind Pressure Humidity
    00:00 +9°C° 0 mm 2 mps 754 mmHg 88%
    01:00 +8°C° 0 mm 3 mps 753 mmHg 89%
    02:00 +8°C° 0 mm 3 mps 753 mmHg 91%
    03:00 +7°C° 0 mm 3 mps 752 mmHg 92%
    04:00 +8°C° 0 mm 3 mps 752 mmHg 90%
    05:00 +8°C° 0 mm 4 mps 752 mmHg 87%
    06:00 +10°C° 0 mm 4 mps 752 mmHg 85%
    07:00 +12°C° 0 mm 5 mps 752 mmHg 81%
    08:00 +14°C° 0 mm 5 mps 752 mmHg 77%
    09:00 +15°C° 0 mm 6 mps 751 mmHg 73%
    10:00 +16°C° 0 mm 6 mps 751 mmHg 72%
    11:00 +16°C° 0 mm 6 mps 751 mmHg 72%
    12:00 +17°C° 0 mm 6 mps 751 mmHg 72%
    13:00 +17°C° 0.1 mm 5 mps 751 mmHg 70%
    14:00 +17°C° 0.1 mm 5 mps 751 mmHg 68%
    15:00 +17°C° 0.1 mm 5 mps 751 mmHg 66%
    16:00 +17°C° 0 mm 5 mps 752 mmHg 68%
    17:00 +17°C° 0 mm 4 mps 752 mmHg 69%
    18:00 +17°C° 0 mm 4 mps 752 mmHg 71%
    19:00 +14°C° 0 mm 3 mps 753 mmHg 77%
    20:00 +12°C° 0 mm 3 mps 753 mmHg 83%
    21:00 +10°C° 0 mm 2 mps 754 mmHg 90%
    22:00 +9°C° 0 mm 2 mps 754 mmHg 90%
    23:00 +9°C° 0 mm 1 mps 754 mmHg 91%
    Show more